This is the latest recevied weather packets stored in our database for station/object YO3LAW-13. If no packets are shown the sender has not sent any weather packets the latest 10 day(s).
| Time | Temp. | Humidity | Pressure | Rain* | Wind** | Luminosity | Snow |
|---|---|---|---|---|---|---|---|
| 1777684257 | 7.78° C | 63% | 1013.2 hPa | 0 mm | - | - | - |
| 1777683657 | 7.78° C | 63% | 1013.2 hPa | 0 mm | - | - | - |
| 1777683057 | 7.78° C | 62% | 1013.4 hPa | 0 mm | - | - | - |
| 1777682457 | 8.33° C | 61% | 1013.2 hPa | 0 mm | - | - | - |
| 1777681857 | 8.33° C | 60% | 1013.2 hPa | 0 mm | - | - | - |
| 1777681257 | 8.33° C | 57% | 1013.3 hPa | 0 mm | - | - | - |
| 1777680657 | 8.33° C | 56% | 1013.4 hPa | 0 mm | - | - | - |
| 1777680057 | 8.89° C | 57% | 1013.2 hPa | 0 mm | - | - | - |
| 1777679457 | 8.89° C | 55% | 1013.7 hPa | 0 mm | - | - | - |
| 1777678857 | 8.89° C | 54% | 1013.7 hPa | 0 mm | - | - | - |
| 1777678257 | 8.89° C | 55% | 1013.7 hPa | 0 mm | - | - | - |
| 1777677657 | 8.89° C | 54% | 1013.8 hPa | 0 mm | - | - | - |
| 1777677057 | 8.89° C | 54% | 1013.9 hPa | 0 mm | - | - | - |
| 1777676457 | 8.89° C | 54% | 1014.2 hPa | 0 mm | - | - | - |
| 1777675857 | 8.33° C | 57% | 1014.1 hPa | 0 mm | - | - | - |
| 1777675257 | 8.33° C | 57% | 1014.2 hPa | 0 mm | - | - | - |
| 1777674658 | 8.33° C | 59% | 1014.2 hPa | 0 mm | - | - | - |
| 1777674058 | 8.89° C | 59% | 1014.7 hPa | 0 mm | - | - | - |
| 1777673457 | 8.89° C | 60% | 1014.6 hPa | 0 mm | - | - | - |
| 1777672857 | 8.89° C | 55% | 1014.5 hPa | 0 mm | - | - | - |
| 1777672257 | 8.89° C | 55% | 1014.9 hPa | 0 mm | - | - | - |
| 1777671657 | 8.89° C | 55% | 1014.6 hPa | 0 mm | - | - | - |
| 1777671057 | 9.44° C | 54% | 1014.7 hPa | 0 mm | - | - | - |
| 1777670457 | 9.44° C | 51% | 1014.8 hPa | 0 mm | - | - | - |
| 1777669857 | 9.44° C | 52% | 1014.9 hPa | 0 mm | - | - | - |
* Rain latest hour (hover to see other rain measurements)
** Current wind speed in m/s (hover to see current wind gust speed)